Meteo pe oră la Dziemiony

Astăzi, 3 Martie, Miercuri

Timp Temperatura Precipitaţii Vânt Presiune Umiditate
00:00 +2°C° 0 mm 0 m/s 765 mmHg 90%
01:00 +1°C° 0 mm 0 m/s 765 mmHg 91%
02:00 +1°C° 0 mm 0 m/s 765 mmHg 91%
03:00 +2°C° 0 mm 1 m/s 764 mmHg 91%
04:00 +2°C° 0 mm 1 m/s 764 mmHg 91%
05:00 +2°C° 0 mm 1 m/s 764 mmHg 91%
06:00 +2°C° 0 mm 1 m/s 763 mmHg 91%
07:00 +2°C° 0 mm 1 m/s 763 mmHg 91%
08:00 +2°C° 0 mm 2 m/s 763 mmHg 83%
09:00 +4°C° 0 mm 2 m/s 763 mmHg 75%
10:00 +5°C° 0 mm 2 m/s 762 mmHg 66%
11:00 +6°C° 0 mm 2 m/s 762 mmHg 62%
12:00 +8°C° 0 mm 2 m/s 761 mmHg 59%
13:00 +9°C° 0 mm 3 m/s 761 mmHg 55%
14:00 +9°C° 0 mm 3 m/s 760 mmHg 58%
15:00 +9°C° 0 mm 3 m/s 759 mmHg 61%
16:00 +9°C° 0 mm 3 m/s 758 mmHg 63%
17:00 +8°C° 0 mm 3 m/s 758 mmHg 70%
18:00 +5°C° 0 mm 3 m/s 757 mmHg 76%
19:00 +4°C° 0 mm 3 m/s 757 mmHg 82%
20:00 +4°C° 0 mm 3 m/s 756 mmHg 84%
21:00 +3°C° 0 mm 3 m/s 755 mmHg 85%
22:00 +3°C° 0 mm 3 m/s 754 mmHg 87%
23:00 +3°C° 0 mm 3 m/s 754 mmHg 88%

Mâine, 4 Martie, Joi

Timp Temperatura Precipitaţii Vânt Presiune Umiditate
00:00 +3°C° 0 mm 3 m/s 754 mmHg 90%
01:00 +2°C° 0 mm 3 m/s 753 mmHg 91%
02:00 +3°C° 0 mm 4 m/s 752 mmHg 92%
03:00 +3°C° 0 mm 4 m/s 752 mmHg 93%
04:00 +3°C° 0 mm 4 m/s 751 mmHg 94%
05:00 +3°C° 0 mm 4 m/s 751 mmHg 93%
06:00 +2°C° 0 mm 5 m/s 751 mmHg 92%
07:00 +2°C° 0 mm 5 m/s 750 mmHg 91%
08:00 +2°C° 0 mm 5 m/s 750 mmHg 87%
09:00 +1°C° 0 mm 5 m/s 750 mmHg 84%
10:00 +1°C° 0 mm 5 m/s 750 mmHg 81%
11:00 +1°C° 0 mm 5 m/s 750 mmHg 81%
12:00 +1°C° 0 mm 5 m/s 750 mmHg 81%
13:00 +1°C° 0 mm 5 m/s 750 mmHg 80%
14:00 +1°C° 0.1 mm 5 m/s 750 mmHg 81%
15:00 +1°C° 0.1 mm 4 m/s 750 mmHg 81%
16:00 +1°C° 0.1 mm 4 m/s 750 mmHg 82%
17:00 0°C° 0.1 mm 4 m/s 751 mmHg 84%
18:00 -1°C° 0.1 mm 4 m/s 751 mmHg 86%
19:00 -2°C° 0.1 mm 4 m/s 751 mmHg 88%
20:00 -2°C° 0 mm 4 m/s 752 mmHg 88%
21:00 -3°C° 0 mm 4 m/s 752 mmHg 88%
22:00 -2°C° 0 mm 3 m/s 752 mmHg 87%
23:00 -2°C° 0 mm 3 m/s 752 mmHg 86%

Poimâine, 5 Martie, Vineri

Timp Temperatura Precipitaţii Vânt Presiune Umiditate
00:00 -4°C° 0 mm 3 m/s 753 mmHg 86%
01:00 -3°C° 0 mm 2 m/s 753 mmHg 85%
02:00 -3°C° 0 mm 2 m/s 753 mmHg 84%
03:00 -4°C° 0 mm 3 m/s 753 mmHg 83%
04:00 -4°C° 0 mm 3 m/s 753 mmHg 82%
05:00 -4°C° 0 mm 3 m/s 754 mmHg 79%
06:00 -4°C° 0 mm 3 m/s 754 mmHg 76%
07:00 -4°C° 0 mm 3 m/s 755 mmHg 73%
08:00 -1°C° 0 mm 3 m/s 755 mmHg 66%
09:00 -1°C° 0 mm 4 m/s 755 mmHg 58%
10:00 0°C° 0 mm 4 m/s 755 mmHg 51%
11:00 +1°C° 0 mm 4 m/s 756 mmHg 48%
12:00 +1°C° 0 mm 4 m/s 756 mmHg 45%
13:00 +3°C° 0 mm 3 m/s 756 mmHg 43%
14:00 +2°C° 0.2 mm 3 m/s 756 mmHg 46%
15:00 +2°C° 0.2 mm 3 m/s 756 mmHg 49%
16:00 +1°C° 0.2 mm 3 m/s 756 mmHg 52%
17:00 0°C° 0.1 mm 3 m/s 757 mmHg 59%
18:00 -1°C° 0.1 mm 3 m/s 757 mmHg 66%
19:00 -2°C° 0.1 mm 3 m/s 758 mmHg 73%
20:00 -2°C° 0 mm 3 m/s 759 mmHg 74%
21:00 -4°C° 0 mm 3 m/s 759 mmHg 75%
22:00 -4°C° 0 mm 3 m/s 760 mmHg 76%
23:00 -4°C° 0 mm 3 m/s 760 mmHg 73%

6 Martie, Sâmbătă

Timp Temperatura Precipitaţii Vânt Presiune Umiditate
00:00 -4°C° 0 mm 3 m/s 760 mmHg 70%
01:00 -4°C° 0 mm 3 m/s 761 mmHg 67%
02:00 -4°C° 0 mm 3 m/s 761 mmHg 67%
03:00 -4°C° 0 mm 3 m/s 761 mmHg 67%
04:00 -4°C° 0 mm 3 m/s 761 mmHg 67%
05:00 -3°C° 0 mm 2 m/s 761 mmHg 68%
06:00 -3°C° 0 mm 2 m/s 762 mmHg 69%
07:00 -3°C° 0 mm 2 m/s 762 mmHg 70%
08:00 -2°C° 0 mm 3 m/s 762 mmHg 62%
09:00 -1°C° 0 mm 3 m/s 762 mmHg 55%
10:00 +1°C° 0 mm 3 m/s 762 mmHg 48%
11:00 0°C° 0 mm 4 m/s 762 mmHg 45%
12:00 +1°C° 0 mm 4 m/s 762 mmHg 43%
13:00 +2°C° 0 mm 5 m/s 761 mmHg 40%
14:00 +1°C° 0 mm 5 m/s 761 mmHg 41%
15:00 +1°C° 0 mm 5 m/s 760 mmHg 43%
16:00 +1°C° 0 mm 5 m/s 760 mmHg 45%
17:00 0°C° 0 mm 5 m/s 759 mmHg 49%
18:00 -1°C° 0 mm 5 m/s 759 mmHg 53%
19:00 -2°C° 0 mm 5 m/s 758 mmHg 57%
20:00 -3°C° 0 mm 6 m/s 758 mmHg 62%
21:00 -3°C° 0 mm 6 m/s 758 mmHg 66%
22:00 -3°C° 0 mm 7 m/s 757 mmHg 71%
23:00 -2°C° 0 mm 7 m/s 757 mmHg 76%

7 Martie, Duminică

Timp Temperatura Precipitaţii Vânt Presiune Umiditate
00:00 -2°C° 0 mm 7 m/s 756 mmHg 81%
01:00 -2°C° 0 mm 7 m/s 756 mmHg 86%
02:00 -2°C° 0 mm 7 m/s 755 mmHg 84%
03:00 -2°C° 0 mm 7 m/s 755 mmHg 83%
04:00 -2°C° 0 mm 7 m/s 754 mmHg 81%
05:00 -2°C° 0 mm 7 m/s 754 mmHg 83%
06:00 -2°C° 0 mm 7 m/s 753 mmHg 85%
07:00 -2°C° 0 mm 7 m/s 753 mmHg 88%
08:00 -2°C° 0.1 mm 8 m/s 753 mmHg 88%
09:00 -2°C° 0.1 mm 8 m/s 753 mmHg 88%
10:00 -2°C° 0.1 mm 8 m/s 753 mmHg 88%
11:00 -1°C° 0 mm 8 m/s 753 mmHg 84%
12:00 -1°C° 0 mm 9 m/s 752 mmHg 80%
13:00 0°C° 0 mm 9 m/s 752 mmHg 75%
14:00 -1°C° 0.2 mm 8 m/s 752 mmHg 81%
15:00 -1°C° 0.2 mm 8 m/s 752 mmHg 88%
16:00 -2°C° 0.2 mm 7 m/s 752 mmHg 94%
17:00 -3°C° 0.6 mm 6 m/s 752 mmHg 87%
18:00 -4°C° 0.6 mm 5 m/s 753 mmHg 81%
19:00 -4°C° 0.6 mm 3 m/s 753 mmHg 74%
20:00 -4°C° 0 mm 3 m/s 754 mmHg 73%
21:00 -5°C° 0 mm 3 m/s 754 mmHg 72%
22:00 -5°C° 0 mm 3 m/s 755 mmHg 71%
23:00 -5°C° 0 mm 3 m/s 755 mmHg 72%

8 Martie, Luni

Timp Temperatura Precipitaţii Vânt Presiune Umiditate
00:00 -5°C° 0 mm 3 m/s 756 mmHg 73%
01:00 -6°C° 0 mm 3 m/s 756 mmHg 74%
02:00 -6°C° 0 mm 3 m/s 756 mmHg 73%
03:00 -6°C° 0 mm 3 m/s 756 mmHg 72%
04:00 -6°C° 0 mm 3 m/s 756 mmHg 71%
05:00 -6°C° 0 mm 3 m/s 757 mmHg 70%
06:00 -5°C° 0 mm 3 m/s 757 mmHg 70%
07:00 -5°C° 0 mm 3 m/s 758 mmHg 70%
08:00 -4°C° 0 mm 4 m/s 759 mmHg 64%
09:00 -4°C° 0 mm 5 m/s 759 mmHg 58%
10:00 -3°C° 0 mm 6 m/s 760 mmHg 53%
11:00 -2°C° 0 mm 5 m/s 760 mmHg 50%
12:00 -2°C° 0 mm 5 m/s 760 mmHg 47%
13:00 -1°C° 0 mm 4 m/s 761 mmHg 44%
14:00 -1°C° 0 mm 4 m/s 761 mmHg 45%
15:00 0°C° 0 mm 3 m/s 761 mmHg 46%
16:00 -1°C° 0 mm 3 m/s 761 mmHg 47%
17:00 -2°C° 0 mm 2 m/s 761 mmHg 52%
18:00 0°C° 0 mm 1 m/s 762 mmHg 57%
19:00 -1°C° 0 mm 1 m/s 762 mmHg 61%
20:00 -2°C° 0 mm 1 m/s 762 mmHg 63%
21:00 -2°C° 0 mm 1 m/s 762 mmHg 64%
22:00 -2°C° 0 mm 1 m/s 763 mmHg 65%
23:00 -2°C° 0 mm 1 m/s 763 mmHg 66%
Arată mai mult

Formular de consimțământ

Meteoprog și furnizorii noștri de servicii pot stoca și accesa date personale, precum cookies, identificatori de dispozitiv sau alte tehnologii similare pe dispozitivul dumneavoastră și procesa astfel de date pentru a personaliza conținutul și reclamele, dar și pentru a oferi caracteristici de social media și pentru a analiza traficul.

  • Stocarea și/sau accesarea informațiilor pe dispozitivul dumneavoastră

    Cookies, identificatori de dispozitiv sau alte informații pot fi stocate sau accesate pe dispozitiv în scopurile indicate mai sus.

  • Reclame și conținut personalizat, evaluarea reclamelor și a conținutului, informații despre audiențe și dezvoltarea produselor

    Reclamele și conținutul pot fi personalizate pe baza unui profil. Pot fi adăugate date suplimentare pentru a personaliza mai bine reclamele și conținutul. Performanța reclamelor și conținutului poate fi măsurată. Pot fi obținute informații despre utilizatorii care au văzut reclamele și conținutul. Aceste date pot fi utilizate pentru a dezvolta sau îmbunătăți experiența utilizatorilor, sistemele și software-ul.

Dând clic pe ‘Sunt de acord’, permiteți utilizarea cookie-urilor menționate, a identificatorilor de dispozitiv, balizelor web sau altor tehnologii similare. Setările pot fi modificate din browser-ul dispozitivului dumneavoastră.

În anumite scopuri, interesele legitime pot prima asupra consimțământului. Puteți citi mai multe informații în acest sens în Politica privind Confidențialitatea Datelor și Cookie.